This is the latest recevied weather packets stored in our database for station/object AC0MR. If no packets are shown the sender has not sent any weather packets the latest 10 day(s).
| Time | Temp. | Humidity | Pressure | Rain* | Wind** | Luminosity | Snow |
|---|---|---|---|---|---|---|---|
| 1777849519 | 23.89° C | 26% | 1005.3 hPa | 0 mm | - | 315 W/m² | - |
| 1777848919 | 23.89° C | 26% | 1005.3 hPa | 0 mm | - | 351 W/m² | - |
| 1777848319 | 23.89° C | 26% | 1005.3 hPa | 0 mm | - | 391 W/m² | - |
| 1777847718 | 24.44° C | 28% | 1005.2 hPa | 0 mm | - | 421 W/m² | - |
| 1777847119 | 24.44° C | 25% | 1005.2 hPa | 0 mm | - | 452 W/m² | - |
| 1777846519 | 24.44° C | 28% | 1005.1 hPa | 0 mm | - | 478 W/m² | - |
| 1777845919 | 24.44° C | 29% | 1005 hPa | 0 mm | - | 509 W/m² | - |
| 1777845319 | 24.44° C | 29% | 1005.2 hPa | 0 mm | - | 541 W/m² | - |
| 1777844719 | 24.44° C | 28% | 1005.2 hPa | 0 mm | - | 569 W/m² | - |
| 1777844119 | 25° C | 30% | 1005.1 hPa | 0 mm | - | 594 W/m² | - |
| 1777843519 | 24.44° C | 31% | 1005.1 hPa | 0 mm | - | 624 W/m² | - |
| 1777842918 | 24.44° C | 33% | 1005 hPa | 0 mm | - | 644 W/m² | - |
| 1777842318 | 24.44° C | 31% | 1005.2 hPa | 0 mm | - | 678 W/m² | - |
| 1777841718 | 24.44° C | 31% | 1005.2 hPa | 0 mm | - | 571 W/m² | - |
| 1777841119 | 24.44° C | 32% | 1005.2 hPa | 0 mm | - | 723 W/m² | - |
| 1777840518 | 24.44° C | 32% | 1005.2 hPa | 0 mm | - | 747 W/m² | - |
| 1777839919 | 24.44° C | 32% | 1005.3 hPa | 0 mm | - | 766 W/m² | - |
| 1777839318 | 24.44° C | 33% | 1005.4 hPa | 0 mm | - | 786 W/m² | - |
| 1777838718 | 23.89° C | 30% | 1005.3 hPa | 0 mm | - | 817 W/m² | - |
| 1777838118 | 23.89° C | 31% | 1005.4 hPa | 0 mm | - | 829 W/m² | - |
| 1777837518 | 23.89° C | 33% | 1005.3 hPa | 0 mm | - | 843 W/m² | - |
| 1777836918 | 23.89° C | 34% | 1005.5 hPa | 0 mm | - | 856 W/m² | - |
| 1777836318 | 23.33° C | 38% | 1005.5 hPa | 0 mm | - | 881 W/m² | - |
| 1777835718 | 23.33° C | 38% | 1005.7 hPa | 0 mm | - | 880 W/m² | - |
| 1777835118 | 22.78° C | 38% | 1005.7 hPa | 0 mm | - | 881 W/m² | - |
* Rain latest hour (hover to see other rain measurements)
** Current wind speed in m/s (hover to see current wind gust speed)